Overview Statistics Trail Chart Weather Telemetry Raw packets
 

This is the latest recevied weather packets stored in our database for station/object DO7CRZ-10. If no packets are shown the sender has not sent any weather packets the latest 10 day(s).

<< 1 2 3 4 >>
Time Temp. Humidity Pressure Rain* Wind** Luminosity Snow
1788610350 21.67° C 50% 1017 hPa - - - -
1788608604 21.67° C 52% 1017 hPa - - - -
1788606858 20.56° C 52% 1017 hPa - - - -
1788605113 20.56° C 58% 1017 hPa - - - -
1788603367 18.89° C 58% 1017 hPa - - - -
1788601621 18.89° C 61% 1017 hPa - - - -
1788599875 18.89° C 61% 1017 hPa - - - -
1788598129 18.33° C 65% 1017 hPa - - - -
1788596383 17.78° C 69% 1017 hPa - - - -
1788594638 17.78° C 70% 1017 hPa - - - -
1788592892 17.78° C 71% 1016 hPa - - - -
1788591146 17.78° C 74% 1016 hPa - - - -
1788589400 16.67° C 79% 1016 hPa - - - -
1788587654 16.67° C 76% 1016 hPa - - - -
1788585908 16.11° C 78% 1016 hPa - - - -
1788584163 15.56° C 79% 1015 hPa - - - -
1788582417 15.56° C 82% 1015 hPa - - - -
1788580671 15.56° C 82% 1015 hPa - - - -
1788578925 16.11° C 82% 1014 hPa - - - -
1788577179 16.11° C 83% 1014 hPa - - - -
1788575433 15.56° C 82% 1014 hPa - - - -
1788573688 15.56° C 82% 1013 hPa - - - -
1788571942 15.56° C 82% 1013 hPa - - - -
1788570196 15.56° C 84% 1013 hPa - - - -
1788568450 15.56° C 85% 1013 hPa - - - -

* Rain since midnight (hover to see other rain measurements)
** Current wind speed in m/s (hover to see current wind gust speed)